Regional Weather Roundup
Issued by NWS Burlington, VT

Current Version | Previous Version | Graphics & Text | Print | Product List | Glossary Off
Versions: 1 2 3 4 5 6 7 8 9 10 11 12 13 14 15 16 17 18 19 20 21 22 23 24 25 26 27 28 29 30 31 32 33 34 35 36 37 38 39 40 41 42 43 44 45 46 47 48 49 50

000
ASUS41 KBTV 241910
RWRBTV
VERMONT REGIONAL WEATHER ROUNDUP
NATIONAL WEATHER SERVICE BURLINGTON VT
300 PM EDT SUN MAY 24 2015

NOTE: "FAIR" INDICATES FEW OR NO CLOUDS BELOW 12,000 FEET WITH NO
SIGNIFICANT WEATHER AND/OR OBSTRUCTIONS TO VISIBILITY.

* THESE REPORTS ARE NOT UNDER NWS QUALITY CONTROL AND/OR DO NOT
  REPORT WEATHER SUCH AS PRECIPITATION AND FOG.

VTZ001>019-242000-
_____VERMONT_____


CITY           SKY/WX    TMP DP  RH WIND       PRES   REMARKS
BURLINGTON     MOCLDY    77  35  21 W14       30.10F
MONTPELIER     MOCLDY    73  37  27 W12G24    30.18S
MORRISVILLE    PTCLDY    79  38  22 SW17G35   30.11F
ST. JOHNSBURY*   N/A     76  39  26 MISG      30.09F
LYNDONVILLE*     N/A     75  34  22 SW15G24   30.13F
MIDDLEBURY*      N/A     80  34  18 NW12      30.13S
RUTLAND*       MOCLDY    77  36  22 W13G28    30.16F
SPRINGFIELD    PTCLDY    81  35  19 SW16G24   30.16F
HIGHGATE*        N/A     79  43  28 W9        30.08S
NEWPORT*         N/A     73  44  34 SW21G26   30.09F
BENNINGTON     CLEAR     78  40  25 W14G22    30.21F
SUTTON*          N/A     72 N/A N/A MISG        N/A

_____LAKE CHAMPLAIN_____


CITY           SKY/WX    TMP DP  RH WIND       PRES   REMARKS

$$

NYZ007-026>031-035-052-083-242000-
_____NORTHERN NEW YORK_____


CITY           SKY/WX    TMP DP  RH WIND       PRES   REMARKS
PLATTSBURGH    PTCLDY    77  37  23 W13G30    30.09S
SARANAC LAKE   PTCLDY    75  33  21 SW20G29   30.16F
MASSENA        PTCLDY    78  43  28 SW21G29   30.10F
OGDENSBURG*    CLEAR     77  45  31 SW15G24   30.12F
POTSDAM*       PTCLDY    79  46  31 SW18G28   30.12F
WATERTOWN      PTCLDY    74  39  28 SW16G28   30.20F
FT DRUM        PTCLDY    76  38  25 W10G26    30.19F
ALBANY         MOCLDY    81  40  23 W14G21    30.20F

$$
NHZ002-005-011-242000-
_____NEW HAMPSHIRE_____


CITY           SKY/WX    TMP DP  RH WIND       PRES   REMARKS
LEBANON        CLEAR     81  38  21 W14G31    30.13F
KEENE          CLEAR    N/A N/A N/A SW14G23   30.17F
MT WASHINGTON  MOCLDY    45  34  65 W56G64      N/A
PLYMOUTH         N/A     79  46  30 W15G24    30.11F
WHITEFIELD     PTCLDY    75  40  28 W15G32    30.11F

$$

_____REGIONAL QUEBEC LOCATIONS_____


CITY           SKY/WX    TMP DP  RH WIND       PRES   REMARKS
MONTREAL       PTCLDY    75  48  38 SW21G29   30.05F
QUEBEC CITY    MOCLDY    66  48  52 SW22G29   29.98S
SHERBROOKE     CLEAR     73  41  31 W18G31    30.04F

_____REGIONAL ONTARIO LOCATIONS_____


CITY           SKY/WX    TMP DP  RH WIND       PRES   REMARKS
OTTAWA         MOCLDY    82  43  24 W21G26    30.06F

______KEY______
VSB  - VISIBILITY IN MILES
WCI  - WIND CHILL INDEX
HX   - HEAT INDEX
$$
NNNN


USA.gov is the U.S. government's official web portal to all federal, state and local government web resources and services.